Regional Weather Roundup
Issued by NWS Huntsville, AL

Home | Current Version | Previous Version | Text Only | Print | Product List | Glossary On
Versions: 1 2 3 4 5 6 7 8 9 10 11 12 13 14 15 16 17 18 19 20 21 22 23 24 25 26 27 28 29 30 31 32 33 34 35 36 37 38 39 40 41 42 43 44 45 46 47 48 49 50
000
ASUS44 KHUN 132010
RWRHUN

WEATHER ROUNDUP FOR THE TENNESSEE VALLEY
NATIONAL WEATHER SERVICE HUNTSVILLE AL
300 PM CDT SUN OCT 13 2019

ALZ001>004-132100-
NORTHWEST ALABAMA

CITY           SKY/WX    TMP DP  RH WIND       PRES   REMARKS
SHOALS AIRPORT FAIR      67  42  40 W5        30.03F
$$

ALZ005>007-016-132100-
NORTH CENTRAL ALABAMA

CITY           SKY/WX    TMP DP  RH WIND       PRES   REMARKS
DECATUR AP     FAIR      66  43  43 NE3       30.03F
HUNTSVILLE AP  PTSUNNY   66  42  41 S6        30.03F
HUN NWS/UAH      N/A     66  35  31 W5          N/A
MERIDIANVILLE  SUNNY     67  39  35 SW5       30.04S
VINEMONT AP    FAIR      65  39  39 CALM      30.05F
$$

ALZ008>010-132100-
NORTHEAST ALABAMA

CITY           SKY/WX    TMP DP  RH WIND       PRES   REMARKS
ALBERTVILLE    FAIR      63  45  51 S8        30.03F
FORT PAYNE     FAIR      69  37  31 SW8       30.02F
SCOTTSBORO AP  FAIR      68  43  40 SW6       30.06R
$$

TNZ076-096-097-132100-
SOUTHEASTERN MIDDLE TENNESSEE

CITY           SKY/WX    TMP DP  RH WIND       PRES   REMARKS
FAYETTEVILLE   SUNNY     66  37  34 W6        30.04R
TULLAHOMA      SUNNY     66  37  34 NW6       30.02S
WINCHESTER     SUNNY     68  34  28 VRB6      30.02S
$$

...SURROUNDING SITES...

CITY           SKY/WX    TMP DP  RH WIND       PRES   REMARKS
ATLANTA        CLOUDY    64  61  90 W8        30.06S
ANNISTON       FAIR      64  61  90 CALM      30.07S
BIRMINGHAM     LGT RAIN  60  51  72 NE3       30.07F
CHATTANOOGA    PTSUNNY   74  39  28 SW7       30.00F
CORINTH        FAIR      68  37  32 SW8       30.04R
DALTON         FAIR      70  45  40 SE3       30.04F
GADSDEN        LGT RAIN  62  51  67 S5        30.05F
GOLDEN TRNGL   CLOUDY    57  51  80 W3        30.09R
HALEYVILLE     FAIR      63  44  50 SW6       30.05F
JACKSON TN     FAIR      68  39  34 W5        30.03F
MEMPHIS        FAIR      67  38  34 VRB6      30.03F
NASHVILLE      FAIR      70  34  26 S6        30.01F
OXFORD MS      FAIR      61  41  48 MISG      30.08S
ROME           FAIR      70  49  47 SW7       30.02F
SAVANNAH       SUNNY     68  43  40 CALM      30.02F
SELMER         SUNNY     66  39  37 CALM      30.02S
TUPELO         FAIR      63  43  48 SW7       30.05S
TUSCALOOSA     LGT RAIN  62  49  62 N7        30.04F
$$




USA.gov is the U.S. government's official web portal to all federal, state and local government web resources and services.